This is the latest recevied weather packets stored in our database for station/object KC5TIL. If no packets are shown the sender has not sent any weather packets the latest 10 day(s).
| Time | Temp. | Humidity | Pressure | Rain* | Wind** | Luminosity | Snow |
|---|---|---|---|---|---|---|---|
| 1777910426 | 24.44° C | 59% | 1013.5 hPa | 0 mm | - | 844 W/m² | - |
| 1777910122 | 23.89° C | 60% | 1013.5 hPa | 0 mm | - | 825 W/m² | - |
| 1777909820 | 23.89° C | 60% | 1013.5 hPa | 0 mm | - | 799 W/m² | - |
| 1777909516 | 23.33° C | 60% | 1013.6 hPa | 0 mm | - | 558 W/m² | - |
| 1777909214 | 23.89° C | 60% | 1013.6 hPa | 0 mm | - | 769 W/m² | - |
| 1777908912 | 23.89° C | 61% | 1013.9 hPa | 0 mm | - | 730 W/m² | - |
| 1777908610 | 22.78° C | 62% | 1013.9 hPa | 0 mm | - | 653 W/m² | - |
| 1777908306 | 23.33° C | 61% | 1014.1 hPa | 0 mm | - | 699 W/m² | - |
| 1777908002 | 23.33° C | 61% | 1014.2 hPa | 0 mm | - | 624 W/m² | - |
| 1777907697 | 22.78° C | 62% | 1014.1 hPa | 0 mm | - | 605 W/m² | - |
| 1777907392 | 22.78° C | 64% | 1014.1 hPa | 0 mm | - | 596 W/m² | - |
| 1777907090 | 22.78° C | 64% | 1014.2 hPa | 0 mm | - | 553 W/m² | - |
| 1777906787 | 22.78° C | 63% | 1014.3 hPa | 0 mm | - | 596 W/m² | - |
| 1777906484 | 22.22° C | 64% | 1014.1 hPa | 0 mm | - | 558 W/m² | - |
| 1777906180 | 22.22° C | 65% | 1014.2 hPa | 0 mm | - | 565 W/m² | - |
| 1777905878 | 22.22° C | 66% | 1014.5 hPa | 0 mm | - | 493 W/m² | - |
| 1777905574 | 22.22° C | 65% | 1014.7 hPa | 0 mm | - | 475 W/m² | - |
| 1777905271 | 22.22° C | 67% | 1014.5 hPa | 0 mm | - | 430 W/m² | - |
| 1777904968 | 21.67° C | 67% | 1014.4 hPa | 0 mm | - | 403 W/m² | - |
| 1777904666 | 21.67° C | 68% | 1014.5 hPa | 0 mm | - | 384 W/m² | - |
| 1777904363 | 21.67° C | 67% | 1014.4 hPa | 0 mm | - | 314 W/m² | - |
| 1777904059 | 21.11° C | 68% | 1014.5 hPa | 0 mm | - | 331 W/m² | - |
| 1777903756 | 21.11° C | 68% | 1014.6 hPa | 0 mm | - | 297 W/m² | - |
| 1777903452 | 21.11° C | 68% | 1014.6 hPa | 0 mm | - | 275 W/m² | - |
| 1777903149 | 20.56° C | 69% | 1014.7 hPa | 0 mm | - | 288 W/m² | - |
* Rain latest hour (hover to see other rain measurements)
** Current wind speed in m/s (hover to see current wind gust speed)